07-05-2022, 00:00:06,    245,    0.4,   10.4,   0.00,   0.00, 1019.9,   93.6, -999.0
07-05-2022, 00:00:16,    258,    1.7,   10.4,   0.00,   0.00, 1020.0,   93.6, -999.0
07-05-2022, 00:00:26,    255,    0.1,   10.4,   0.00,   0.00, 1019.8,   93.3, -999.0
07-05-2022, 00:00:36,    255,    0.0,   10.4,   0.00,   0.00, 1019.8,   93.4, -999.0
07-05-2022, 00:00:46,    255,    0.0,   10.4,   0.00,   0.00, 1019.8,   93.3, -999.0
07-05-2022, 00:00:56,    256,    0.0,   10.4,   0.00,   0.00, 1019.8,   93.3, -999.0
07-05-2022, 00:01:05,    255,    0.2,   10.4,   0.00,   0.00, 1019.8,   93.4, -999.0
07-05-2022, 00:01:15,    255,    0.0,   10.4,   0.00,   0.00, 1019.8,   93.4, -999.0
07-05-2022, 00:01:26,    257,    0.0,   10.4,   0.00,   0.00, 1019.8,   93.5, -999.0
07-05-2022, 00:01:35,    258,    0.4,   10.5,   0.00,   0.00, 1019.9,   93.9, -999.0
07-05-2022, 00:01:45,    258,    1.4,   10.5,   0.00,   0.00, 1019.9,   93.9, -999.0
07-05-2022, 00:01:55,    239,    0.7,   10.4,   0.00,   0.00, 1019.9,   93.8, -999.0
07-05-2022, 00:02:05,    239,    0.0,   10.4,   0.00,   0.00, 1019.8,   93.7, -999.0
07-05-2022, 00:02:15,    241,    0.0,   10.3,   0.00,   0.00, 1019.8,   93.5, -999.0
07-05-2022, 00:02:25,    241,    0.0,   10.3,   0.00,   0.00, 1019.8,   93.5, -999.0
07-05-2022, 00:02:35,    242,    0.0,   10.3,   0.00,   0.00, 1019.8,   93.5, -999.0
07-05-2022, 00:02:45,    242,    0.0,   10.3,   0.00,   0.00, 1019.8,   93.5, -999.0
07-05-2022, 00:02:55,    242,    0.0,   10.4,   0.00,   0.00, 1019.8,   93.6, -999.0
07-05-2022, 00:03:05,    242,    0.0,   10.4,   0.00,   0.00, 1019.8,   93.6, -999.0
07-05-2022, 00:03:15,    242,    0.0,   10.4,   0.00,   0.00, 1019.8,   93.7, -999.0
07-05-2022, 00:03:25,    242,    0.0,   10.4,   0.00,   0.00, 1019.8,   93.6, -999.0
07-05-2022, 00:03:35,    242,    0.0,   10.3,   0.00,   0.00, 1019.8,   93.7, -999.0
07-05-2022, 00:03:44,    242,    0.0,   10.4,   0.00,   0.00, 1019.8,   93.8, -999.0
07-05-2022, 00:03:55,    250,    0.0,   10.4,   0.00,   0.00, 1019.8,   93.8, -999.0
07-05-2022, 00:04:05,    242,    0.0,   10.3,   0.00,   0.00, 1019.8,   93.9, -999.0
07-05-2022, 00:04:14,    240,    0.0,   10.3,   0.00,   0.00, 1019.8,   93.8, -999.0
07-05-2022, 00:04:24,    242,    0.8,   10.4,   0.00,   0.00, 1019.9,   94.1, -999.0
07-05-2022, 00:04:35,    250,    1.4,   10.4,   0.00,   0.00, 1019.9,   94.2, -999.0
07-05-2022, 00:04:44,    252,    0.7,   10.3,   0.00,   0.00, 1020.0,   94.1, -999.0
07-05-2022, 00:04:54,    252,    0.0,   10.5,   0.00,   0.00, 1019.9,   93.9, -999.0
07-05-2022, 00:05:05,    249,    0.0,   10.4,   0.00,   0.00, 1019.8,   93.8, -999.0
07-05-2022, 00:05:14,    249,    0.0,   10.4,   0.00,   0.00, 1019.8,   93.8, -999.0
07-05-2022, 00:05:24,    248,    0.0,   10.4,   0.00,   0.00, 1019.8,   93.9, -999.0
07-05-2022, 00:05:34,    248,    0.0,   10.3,   0.00,   0.00, 1019.8,   93.9, -999.0
07-05-2022, 00:05:44,    249,    0.0,   10.3,   0.00,   0.00, 1019.8,   93.8, -999.0
07-05-2022, 00:05:54,    248,    0.0,   10.3,   0.00,   0.00, 1019.8,   93.9, -999.0
07-05-2022, 00:06:04,    222,    1.0,   10.4,   0.00,   0.00, 1019.9,   94.1, -999.0
07-05-2022, 00:06:14,    232,    1.6,   10.5,   0.00,   0.00, 1020.0,   94.5, -999.0
07-05-2022, 00:06:24,    243,    0.8,   10.5,   0.00,   0.00, 1019.9,   94.4, -999.0
07-05-2022, 00:06:34,    222,    1.7,   10.5,   0.00,   0.00, 1019.9,   94.2, -999.0
07-05-2022, 00:06:44,    222,    0.9,   10.5,   0.00,   0.00, 1019.9,   94.2, -999.0
07-05-2022, 00:06:54,    223,    0.2,   10.5,   0.00,   0.00, 1019.9,   94.1, -999.0
07-05-2022, 00:07:04,    223,    0.0,   10.5,   0.00,   0.00, 1019.9,   94.2, -999.0
07-05-2022, 00:07:14,    228,    0.6,   10.5,   0.00,   0.00, 1019.9,   94.5, -999.0
07-05-2022, 00:07:23,    214,    1.3,   10.5,   0.00,   0.00, 1020.0,   94.6, -999.0
07-05-2022, 00:07:34,    217,    0.6,   10.5,   0.00,   0.00, 1019.9,   94.3, -999.0
07-05-2022, 00:07:44,    226,    1.4,   10.5,   0.00,   0.00, 1019.9,   94.3, -999.0
07-05-2022, 00:07:53,    226,    0.2,   10.4,   0.00,   0.00, 1019.9,   94.3, -999.0
07-05-2022, 00:08:03,    237,    0.7,   10.4,   0.00,   0.00, 1019.9,   94.3, -999.0
07-05-2022, 00:08:13,    256,    2.4,   10.5,   0.00,   0.00, 1020.0,   94.5, -999.0
07-05-2022, 00:08:23,    248,    1.3,   10.5,   0.00,   0.00, 1019.9,   94.6, -999.0
07-05-2022, 00:08:33,    246,    1.4,   10.5,   0.00,   0.00, 1019.9,   94.4, -999.0
07-05-2022, 00:08:43,    246,    0.7,   10.4,   0.00,   0.00, 1019.9,   94.5, -999.0
07-05-2022, 00:08:53,    246,    0.2,   10.4,   0.00,   0.00, 1019.9,   94.3, -999.0
07-05-2022, 00:09:03,    245,    0.0,   10.3,   0.00,   0.00, 1019.8,   94.1, -999.0
07-05-2022, 00:09:13,    212,    0.2,   10.4,   0.00,   0.00, 1019.9,   94.4, -999.0
07-05-2022, 00:09:23,    214,    0.5,   10.5,   0.00,   0.00, 1019.9,   94.4, -999.0
07-05-2022, 00:09:33,    220,    1.3,   10.5,   0.00,   0.00, 1019.9,   94.6, -999.0
07-05-2022, 00:09:43,    242,    1.7,   10.5,   0.00,   0.00, 1019.9,   94.6, -999.0
07-05-2022, 00:09:53,    236,    0.6,   10.4,   0.00,   0.00, 1019.9,   94.6, -999.0
07-05-2022, 00:10:03,    235,    0.3,   10.5,   0.00,   0.00, 1019.9,   94.5, -999.0
07-05-2022, 00:10:13,    235,    0.0,   10.4,   0.00,   0.00, 1019.8,   94.3, -999.0
07-05-2022, 00:10:23,    237,    0.2,   10.5,   0.00,   0.00, 1019.9,   94.6, -999.0
07-05-2022, 00:10:32,    236,    0.6,   10.5,   0.00,   0.00, 1020.0,   94.7, -999.0
07-05-2022, 00:10:43,    241,    2.6,   10.5,   0.00,   0.00, 1019.9,   94.8, -999.0
07-05-2022, 00:10:52,    242,    1.8,   10.5,   0.00,   0.00, 1019.9,   94.7, -999.0
07-05-2022, 00:11:02,    253,    1.6,   10.4,   0.00,   0.00, 1019.9,   94.7, -999.0
07-05-2022, 00:11:12,    270,    1.9,   10.5,   0.00,   0.00, 1019.9,   94.8, -999.0
07-05-2022, 00:11:22,    267,    0.4,   10.4,   0.00,   0.00, 1019.9,   94.6, -999.0
07-05-2022, 00:11:32,    270,    1.7,   10.5,   0.00,   0.00, 1020.0,   94.5, -999.0
07-05-2022, 00:11:44,    268,    0.8,   10.5,   0.00,   0.00, 1020.0,   94.6, -999.0
07-05-2022, 00:11:52,    267,    0.2,   10.4,   0.00,   0.00, 1019.8,   94.4, -999.0
07-05-2022, 00:12:02,    266,    0.0,   10.4,   0.00,   0.00, 1019.8,   94.4, -999.0
07-05-2022, 00:12:12,    266,    0.0,   10.4,   0.00,   0.00, 1019.8,   94.4, -999.0
07-05-2022, 00:12:22,    266,    0.5,   10.4,   0.00,   0.00, 1019.9,   94.8, -999.0
07-05-2022, 00:12:32,    266,    0.9,   10.5,   0.00,   0.00, 1019.9,   94.7, -999.0
07-05-2022, 00:12:42,    269,    0.7,   10.4,   0.00,   0.00, 1019.9,   94.7, -999.0
07-05-2022, 00:12:52,    268,    0.2,   10.3,   0.00,   0.00, 1019.9,   94.6, -999.0
07-05-2022, 00:13:02,    270,    0.0,   10.4,   0.00,   0.00, 1019.8,   94.4, -999.0
07-05-2022, 00:13:12,    271,    1.0,   10.4,   0.00,   0.00, 1019.9,   94.9, -999.0
07-05-2022, 00:13:22,    270,    0.0,   10.4,   0.00,   0.00, 1019.8,   94.4, -999.0
07-05-2022, 00:13:32,    270,    0.0,   10.3,   0.00,   0.00, 1019.8,   94.4, -999.0
07-05-2022, 00:13:42,    268,    0.0,   10.3,   0.00,   0.00, 1019.8,   94.5, -999.0
07-05-2022, 00:13:52,    268,    0.3,   10.4,   0.00,   0.00, 1019.9,   94.9, -999.0
07-05-2022, 00:14:01,    268,    0.1,   10.3,   0.00,   0.00, 1019.8,   94.6, -999.0
07-05-2022, 00:14:11,    268,    0.0,   10.3,   0.00,   0.00, 1019.8,   94.6, -999.0
07-05-2022, 00:14:22,    268,    0.0,   10.3,   0.00,   0.00, 1019.7,   94.6, -999.0
07-05-2022, 00:14:31,    268,    0.0,   10.4,   0.00,   0.00, 1019.8,   94.6, -999.0
07-05-2022, 00:14:41,    268,    0.1,   10.3,   0.00,   0.00, 1019.8,   94.6, -999.0
07-05-2022, 00:14:51,    249,    0.8,   10.4,   0.00,   0.00, 1019.9,   95.1, -999.0
07-05-2022, 00:15:01,    311,    0.5,   10.4,   0.00,   0.00, 1019.9,   94.9, -999.0
07-05-2022, 00:15:11,    308,    0.0,   10.3,   0.00,   0.00, 1019.7,   94.7, -999.0
07-05-2022, 00:15:21,    275,    0.0,   10.4,   0.00,   0.00, 1019.8,   94.8, -999.0
07-05-2022, 00:15:31,    275,    0.0,   10.4,   0.00,   0.00, 1019.8,   94.8, -999.0
07-05-2022, 00:15:41,    270,    0.1,   10.4,   0.00,   0.00, 1019.9,   94.9, -999.0
07-05-2022, 00:15:51,    268,    0.2,   10.4,   0.00,   0.00, 1019.9,   95.0, -999.0
07-05-2022, 00:16:01,    264,    0.0,   10.3,   0.00,   0.00, 1019.8,   94.7, -999.0
07-05-2022, 00:16:11,    265,    0.0,   10.4,   0.00,   0.00, 1019.8,   94.8, -999.0
07-05-2022, 00:16:21,    264,    0.0,   10.4,   0.00,   0.00, 1019.7,   94.7, -999.0
07-05-2022, 00:16:31,    265,    0.0,   10.4,   0.00,   0.00, 1019.8,   94.8, -999.0
07-05-2022, 00:16:40,    265,    0.0,   10.4,   0.00,   0.00, 1019.7,   94.8, -999.0
07-05-2022, 00:16:51,    265,    0.0,   10.4,   0.00,   0.00, 1019.7,   94.8, -999.0
07-05-2022, 00:17:01,    264,    0.0,   10.4,   0.00,   0.00, 1019.8,   94.9, -999.0
07-05-2022, 00:17:10,    264,    0.0,   10.4,   0.00,   0.00, 1019.7,   94.8, -999.0
07-05-2022, 00:17:20,    264,    0.0,   10.2,   0.00,   0.00, 1019.7,   94.7, -999.0
07-05-2022, 00:17:31,    264,    0.0,   10.3,   0.00,   0.00, 1019.7,   94.6, -999.0
07-05-2022, 00:17:40,    264,    0.0,   10.3,   0.00,   0.00, 1019.7,   94.7, -999.0
07-05-2022, 00:17:50,    264,    0.0,   10.4,   0.00,   0.00, 1019.7,   94.8, -999.0
07-05-2022, 00:18:00,    264,    0.0,   10.4,   0.00,   0.00, 1019.7,   94.8, -999.0
07-05-2022, 00:18:10,    264,    0.0,   10.3,   0.00,   0.00, 1019.8,   94.8, -999.0
07-05-2022, 00:18:20,    264,    0.0,   10.3,   0.00,   0.00, 1019.8,   95.0, -999.0
07-05-2022, 00:18:30,    264,    0.0,   10.3,   0.00,   0.00, 1019.7,   95.0, -999.0
07-05-2022, 00:18:40,    241,    0.7,   10.4,   0.00,   0.00, 1019.9,   95.3, -999.0
07-05-2022, 00:18:50,    249,    0.2,   10.5,   0.00,   0.00, 1019.9,   95.3, -999.0
07-05-2022, 00:19:00,    249,    0.3,   10.4,   0.00,   0.00, 1019.9,   95.2, -999.0
07-05-2022, 00:19:10,    249,    0.0,   10.4,   0.00,   0.00, 1019.9,   95.1, -999.0
07-05-2022, 00:19:20,    249,    0.0,   10.3,   0.00,   0.00, 1019.8,   95.0, -999.0
07-05-2022, 00:19:30,    249,    0.0,   10.4,   0.00,   0.00, 1019.8,   95.0, -999.0
07-05-2022, 00:19:40,    321,    0.2,   10.4,   0.00,   0.00, 1019.9,   95.3, -999.0
07-05-2022, 00:19:49,    321,    0.7,   10.4,   0.00,   0.00, 1019.9,   95.3, -999.0
07-05-2022, 00:20:01,    277,    0.0,   10.4,   0.00,   0.00, 1019.8,   95.2, -999.0
07-05-2022, 00:20:10,    278,    0.0,   10.4,   0.00,   0.00, 1019.8,   95.1, -999.0
07-05-2022, 00:20:19,    274,    0.0,   10.4,   0.00,   0.00, 1019.8,   95.1, -999.0
07-05-2022, 00:20:30,    278,    0.0,   10.4,   0.00,   0.00, 1019.8,   95.1, -999.0
07-05-2022, 00:20:40,    278,    0.0,   10.4,   0.00,   0.00, 1019.8,   95.2, -999.0
07-05-2022, 00:20:49,    278,    0.0,   10.3,   0.00,   0.00, 1019.8,   95.2, -999.0
07-05-2022, 00:20:59,    278,    0.0,   10.4,   0.00,   0.00, 1019.8,   95.2, -999.0
07-05-2022, 00:21:09,    278,    0.6,   10.5,   0.00,   0.00, 1019.9,   95.5, -999.0
07-05-2022, 00:21:19,    212,    0.0,   10.4,   0.00,   0.00, 1019.8,   95.2, -999.0
07-05-2022, 00:21:29,    213,    0.0,   10.4,   0.00,   0.00, 1019.8,   95.1, -999.0
07-05-2022, 00:21:39,    272,    0.4,   10.5,   0.00,   0.00, 1019.9,   95.5, -999.0
07-05-2022, 00:21:49,    269,    0.0,   10.4,   0.00,   0.00, 1019.8,   95.1, -999.0
07-05-2022, 00:21:59,    255,    0.9,   10.5,   0.00,   0.00, 1019.9,   95.5, -999.0
07-05-2022, 00:22:09,    254,    1.0,   10.5,   0.00,   0.00, 1020.0,   95.5, -999.0
07-05-2022, 00:22:19,    272,    2.7,   10.5,   0.00,   0.00, 1020.0,   95.6, -999.0
07-05-2022, 00:22:29,    259,    1.6,   10.4,   0.00,   0.00, 1020.0,   95.5, -999.0
07-05-2022, 00:22:39,    275,    1.5,   10.4,   0.00,   0.00, 1019.9,   95.5, -999.0
07-05-2022, 00:22:49,    275,    0.5,   10.4,   0.00,   0.00, 1019.9,   95.5, -999.0
07-05-2022, 00:22:59,    275,    0.8,   10.4,   0.00,   0.00, 1019.9,   95.5, -999.0
07-05-2022, 00:23:09,    271,    0.4,   10.4,   0.00,   0.00, 1019.9,   95.3, -999.0
07-05-2022, 00:23:19,    285,    0.8,   10.4,   0.00,   0.00, 1019.9,   95.5, -999.0
07-05-2022, 00:23:28,    289,    0.2,   10.4,   0.00,   0.00, 1019.9,   95.4, -999.0
07-05-2022, 00:23:39,    303,    0.0,   10.3,   0.00,   0.00, 1019.8,   95.3, -999.0
07-05-2022, 00:23:48,    282,    0.0,   10.3,   0.00,   0.00, 1019.8,   95.2, -999.0
07-05-2022, 00:23:58,    282,    0.0,   10.3,   0.00,   0.00, 1019.8,   95.3, -999.0
07-05-2022, 00:24:08,    282,    0.0,   10.3,   0.00,   0.00, 1019.8,   95.2, -999.0
07-05-2022, 00:24:18,    282,    0.0,   10.2,   0.00,   0.00, 1019.8,   95.4, -999.0
07-05-2022, 00:24:28,    282,    0.0,   10.3,   0.00,   0.00, 1019.8,   95.4, -999.0
07-05-2022, 00:24:38,    282,    0.0,   10.4,   0.00,   0.00, 1019.8,   95.4, -999.0
07-05-2022, 00:24:48,    234,    0.1,   10.4,   0.00,   0.00, 1019.8,   95.6, -999.0
07-05-2022, 00:24:58,    235,    1.4,   10.5,   0.00,   0.00, 1019.9,   96.0, -999.0
07-05-2022, 00:25:08,    235,    0.4,   10.4,   0.00,   0.00, 1019.9,   95.8, -999.0
07-05-2022, 00:25:18,    295,    0.7,   10.4,   0.00,   0.00, 1019.9,   95.8, -999.0
07-05-2022, 00:25:28,    295,    0.1,   10.4,   0.00,   0.00, 1019.8,   95.6, -999.0
07-05-2022, 00:25:38,    295,    0.0,   10.3,   0.00,   0.00, 1019.8,   95.4, -999.0
07-05-2022, 00:25:48,    296,    0.0,   10.4,   0.00,   0.00, 1019.8,   95.5, -999.0
07-05-2022, 00:25:58,    295,    0.0,   10.3,   0.00,   0.00, 1019.8,   95.4, -999.0
07-05-2022, 00:26:08,    295,    0.0,   10.3,   0.00,   0.00, 1019.8,   95.4, -999.0
07-05-2022, 00:26:18,    268,    0.0,   10.4,   0.00,   0.00, 1019.8,   95.6, -999.0
07-05-2022, 00:26:27,    235,    0.2,   10.3,   0.00,   0.00, 1019.9,   95.7, -999.0
07-05-2022, 00:26:38,    228,    0.8,   10.5,   0.00,   0.00, 1019.9,   96.0, -999.0
07-05-2022, 00:26:48,    226,    0.3,   10.4,   0.00,   0.00, 1019.9,   95.9, -999.0
07-05-2022, 00:26:57,    254,    1.0,   10.4,   0.00,   0.00, 1019.9,   96.1, -999.0
07-05-2022, 00:27:07,    230,    1.6,   10.5,   0.00,   0.00, 1020.0,   96.0, -999.0
07-05-2022, 00:27:18,    230,    0.9,   10.5,   0.00,   0.00, 1019.9,   96.0, -999.0
07-05-2022, 00:27:27,    277,    0.4,   10.4,   0.00,   0.00, 1019.9,   96.0, -999.0
07-05-2022, 00:27:37,    286,    0.5,   10.4,   0.00,   0.00, 1019.9,   95.9, -999.0
07-05-2022, 00:27:47,    289,    0.6,   10.4,   0.00,   0.00, 1019.9,   96.1, -999.0
07-05-2022, 00:27:57,    289,    0.4,   10.4,   0.00,   0.00, 1019.9,   95.8, -999.0
07-05-2022, 00:28:07,    289,    0.0,   10.3,   0.00,   0.00, 1019.8,   95.6, -999.0
07-05-2022, 00:28:17,    244,    1.4,   10.3,   0.00,   0.00, 1019.9,   95.7, -999.0
07-05-2022, 00:28:27,    233,    2.5,   10.4,   0.00,   0.00, 1019.9,   96.0, -999.0
07-05-2022, 00:28:37,    237,    1.4,   10.4,   0.00,   0.00, 1019.9,   96.0, -999.0
07-05-2022, 00:28:47,    234,    2.3,   10.3,   0.00,   0.00, 1019.9,   95.9, -999.0
07-05-2022, 00:28:57,    241,    1.1,   10.4,   0.00,   0.00, 1019.9,   96.0, -999.0
07-05-2022, 00:29:07,    260,    0.5,   10.4,   0.00,   0.00, 1019.9,   96.0, -999.0
07-05-2022, 00:29:17,    260,    0.5,   10.3,   0.00,   0.00, 1019.9,   96.1, -999.0
07-05-2022, 00:29:27,    309,    0.6,   10.4,   0.00,   0.00, 1019.9,   96.0, -999.0
07-05-2022, 00:29:36,    308,    0.2,   10.4,   0.00,   0.00, 1019.8,   95.8, -999.0
07-05-2022, 00:29:47,    241,    1.2,   10.4,   0.00,   0.00, 1019.9,   95.9, -999.0
07-05-2022, 00:29:57,    229,    0.7,   10.4,   0.00,   0.00, 1019.9,   96.0, -999.0
07-05-2022, 00:30:06,    229,    0.1,   10.4,   0.00,   0.00, 1019.8,   95.8, -999.0
07-05-2022, 00:30:17,    229,    0.3,   10.3,   0.00,   0.00, 1019.9,   96.0, -999.0
07-05-2022, 00:30:26,    229,    0.3,   10.4,   0.00,   0.00, 1019.8,   95.9, -999.0
07-05-2022, 00:30:36,    229,    0.0,   10.3,   0.00,   0.00, 1019.7,   95.8, -999.0
07-05-2022, 00:30:46,    232,    0.0,   10.3,   0.00,   0.00, 1019.7,   95.8, -999.0
07-05-2022, 00:30:56,    232,    0.0,   10.3,   0.00,   0.00, 1019.8,   95.8, -999.0
07-05-2022, 00:31:06,    233,    0.0,   10.3,   0.00,   0.00, 1019.7,   95.9, -999.0
07-05-2022, 00:31:16,    253,    0.3,   10.3,   0.00,   0.00, 1019.8,   96.1, -999.0
07-05-2022, 00:31:26,    251,    0.2,   10.4,   0.00,   0.00, 1019.8,   96.0, -999.0
07-05-2022, 00:31:36,    251,    0.0,   10.2,   0.00,   0.00, 1019.7,   95.7, -999.0
07-05-2022, 00:31:46,    251,    0.2,   10.4,   0.00,   0.00, 1019.9,   96.0, -999.0
07-05-2022, 00:31:56,    251,    0.0,   10.3,   0.00,   0.00, 1019.7,   95.9, -999.0
07-05-2022, 00:32:06,    251,    0.0,   10.3,   0.00,   0.00, 1019.8,   95.9, -999.0
07-05-2022, 00:32:16,    249,    0.0,   10.3,   0.00,   0.00, 1019.7,   95.8, -999.0
07-05-2022, 00:32:26,    249,    0.0,   10.3,   0.00,   0.00, 1019.7,   95.9, -999.0
07-05-2022, 00:32:36,    249,    0.0,   10.4,   0.00,   0.00, 1019.7,   95.9, -999.0
07-05-2022, 00:32:46,    249,    0.0,   10.4,   0.00,   0.00, 1019.7,   95.9, -999.0
07-05-2022, 00:32:56,    249,    0.0,   10.3,   0.00,   0.00, 1019.7,   96.0, -999.0
07-05-2022, 00:33:06,    242,    0.3,   10.3,   0.00,   0.00, 1019.9,   96.1, -999.0
07-05-2022, 00:33:15,    242,    0.0,   10.3,   0.00,   0.00, 1019.7,   96.0, -999.0
07-05-2022, 00:33:26,    242,    0.1,   10.3,   0.00,   0.00, 1019.8,   96.1, -999.0
07-05-2022, 00:33:35,    242,    0.0,   10.2,   0.00,   0.00, 1019.7,   96.0, -999.0
07-05-2022, 00:33:45,    243,    0.0,   10.3,   0.00,   0.00, 1019.8,   95.8, -999.0
07-05-2022, 00:33:55,    243,    0.2,   10.3,   0.00,   0.00, 1019.8,   96.1, -999.0
07-05-2022, 00:34:05,    242,    0.4,   10.4,   0.00,   0.00, 1019.9,   96.2, -999.0
07-05-2022, 00:34:15,    242,    0.0,   10.3,   0.00,   0.00, 1019.7,   95.9, -999.0
07-05-2022, 00:34:25,    243,    0.0,   10.3,   0.00,   0.00, 1019.7,   96.0, -999.0
07-05-2022, 00:34:35,    244,    0.2,   10.3,   0.00,   0.00, 1019.8,   96.2, -999.0
07-05-2022, 00:34:45,    244,    0.1,   10.3,   0.00,   0.00, 1019.8,   96.2, -999.0
07-05-2022, 00:34:55,    244,    0.0,   10.2,   0.00,   0.00, 1019.8,   96.0, -999.0
07-05-2022, 00:35:05,    242,    0.0,   10.3,   0.00,   0.00, 1019.8,   96.2, -999.0
07-05-2022, 00:35:15,    242,    0.0,   10.3,   0.00,   0.00, 1019.8,   96.1, -999.0
07-05-2022, 00:35:25,    243,    0.0,   10.3,   0.00,   0.00, 1019.8,   96.1, -999.0
07-05-2022, 00:35:35,    243,    0.0,   10.3,   0.00,   0.00, 1019.7,   96.2, -999.0
07-05-2022, 00:35:45,    242,    0.0,   10.3,   0.00,   0.00, 1019.7,   96.1, -999.0
07-05-2022, 00:35:55,    243,    0.0,   10.2,   0.00,   0.00, 1019.7,   96.1, -999.0
07-05-2022, 00:36:05,    243,    0.0,   10.3,   0.00,   0.00, 1019.7,   96.1, -999.0
07-05-2022, 00:36:15,    243,    0.0,   10.3,   0.00,   0.00, 1019.8,   96.3, -999.0
07-05-2022, 00:36:24,    244,    0.0,   10.3,   0.00,   0.00, 1019.8,   96.2, -999.0
07-05-2022, 00:36:35,    256,    0.1,   10.4,   0.00,   0.00, 1019.9,   96.3, -999.0
07-05-2022, 00:36:44,    257,    0.0,   10.3,   0.00,   0.00, 1019.8,   96.2, -999.0
07-05-2022, 00:36:54,    262,    0.1,   10.3,   0.00,   0.00, 1019.9,   96.3, -999.0
07-05-2022, 00:37:04,    261,    0.0,   10.3,   0.00,   0.00, 1019.8,   96.2, -999.0
07-05-2022, 00:37:14,    261,    0.0,   10.3,   0.00,   0.00, 1019.7,   96.2, -999.0
07-05-2022, 00:37:24,    286,    0.6,   10.3,   0.00,   0.00, 1019.8,   96.5, -999.0
07-05-2022, 00:37:34,    284,    1.7,   10.3,   0.00,   0.00, 1019.9,   96.6, -999.0
07-05-2022, 00:37:44,    284,    0.3,   10.2,   0.00,   0.00, 1019.8,   96.2, -999.0
07-05-2022, 00:37:54,    256,    1.1,   10.3,   0.00,   0.00, 1019.9,   96.5, -999.0
07-05-2022, 00:38:04,    256,    1.6,   10.4,   0.00,   0.00, 1019.9,   96.5, -999.0
07-05-2022, 00:38:14,    222,    1.6,   10.3,   0.00,   0.00, 1019.9,   96.7, -999.0
07-05-2022, 00:38:24,    219,    0.5,   10.3,   0.00,   0.00, 1019.9,   96.4, -999.0
07-05-2022, 00:38:34,    316,    0.2,   10.3,   0.00,   0.00, 1019.8,   96.4, -999.0
07-05-2022, 00:38:44,    317,    0.0,   10.3,   0.00,   0.00, 1019.7,   96.3, -999.0
07-05-2022, 00:38:54,    316,    0.0,   10.2,   0.00,   0.00, 1019.7,   96.3, -999.0
07-05-2022, 00:39:04,    317,    0.0,   10.3,   0.00,   0.00, 1019.8,   96.5, -999.0
07-05-2022, 00:39:14,    252,    0.3,   10.3,   0.00,   0.00, 1019.8,   96.7, -999.0
07-05-2022, 00:39:23,    252,    0.9,   10.3,   0.00,   0.00, 1019.8,   96.7, -999.0
07-05-2022, 00:39:34,    252,    1.9,   10.4,   0.00,   0.00, 1019.9,   96.8, -999.0
07-05-2022, 00:39:44,    222,    1.3,   10.3,   0.00,   0.00, 1019.9,   96.7, -999.0
07-05-2022, 00:39:53,    232,    1.6,   10.3,   0.00,   0.00, 1019.8,   96.8, -999.0
07-05-2022, 00:40:03,    232,    0.6,   10.4,   0.00,   0.00, 1019.9,   96.7, -999.0
07-05-2022, 00:40:14,    232,    0.0,   10.2,   0.00,   0.00, 1019.7,   96.4, -999.0
07-05-2022, 00:40:23,    232,    0.0,   10.3,   0.00,   0.00, 1019.7,   96.4, -999.0
07-05-2022, 00:40:33,    232,    0.0,   10.3,   0.00,   0.00, 1019.7,   96.5, -999.0
07-05-2022, 00:40:43,    232,    0.0,   10.3,   0.00,   0.00, 1019.7,   96.6, -999.0
07-05-2022, 00:40:53,    249,    0.1,   10.3,   0.00,   0.00, 1019.7,   96.7, -999.0
07-05-2022, 00:41:03,    249,    0.7,   10.4,   0.00,   0.00, 1019.8,   96.9, -999.0
07-05-2022, 00:41:13,    247,    0.5,   10.2,   0.00,   0.00, 1019.8,   96.9, -999.0
07-05-2022, 00:41:23,    301,    0.0,   10.1,   0.00,   0.00, 1019.7,   96.5, -999.0
07-05-2022, 00:41:33,    285,    1.2,   10.3,   0.00,   0.00, 1019.8,   97.0, -999.0
07-05-2022, 00:41:43,    286,    0.6,   10.3,   0.00,   0.00, 1019.9,   96.8, -999.0
07-05-2022, 00:41:53,    286,    0.5,   10.3,   0.00,   0.00, 1019.9,   96.8, -999.0
07-05-2022, 00:42:03,    286,    0.6,   10.3,   0.00,   0.00, 1019.9,   97.0, -999.0
07-05-2022, 00:42:13,    286,    0.4,   10.3,   0.00,   0.00, 1019.9,   96.9, -999.0
07-05-2022, 00:42:23,    285,    0.0,   10.2,   0.00,   0.00, 1019.7,   96.5, -999.0
07-05-2022, 00:42:32,    286,    0.0,   10.2,   0.00,   0.00, 1019.7,   96.6, -999.0
07-05-2022, 00:42:43,    286,    0.0,   10.2,   0.00,   0.00, 1019.7,   96.6, -999.0
07-05-2022, 00:42:53,    286,    0.0,   10.2,   0.00,   0.00, 1019.7,   96.7, -999.0
07-05-2022, 00:43:02,    271,    0.4,   10.3,   0.00,   0.00, 1019.8,   96.9, -999.0
07-05-2022, 00:43:12,    263,    0.5,   10.3,   0.00,   0.00, 1019.8,   97.0, -999.0
07-05-2022, 00:43:23,    263,    1.1,   10.3,   0.00,   0.00, 1019.9,   97.0, -999.0
07-05-2022, 00:43:32,    263,    0.3,   10.3,   0.00,   0.00, 1019.8,   97.0, -999.0
07-05-2022, 00:43:42,    263,    0.0,   10.2,   0.00,   0.00, 1019.7,   96.6, -999.0
07-05-2022, 00:43:52,    263,    0.0,   10.2,   0.00,   0.00, 1019.7,   96.6, -999.0
07-05-2022, 00:44:02,    263,    0.0,   10.2,   0.00,   0.00, 1019.7,   96.6, -999.0
07-05-2022, 00:44:12,    263,    0.0,   10.2,   0.00,   0.00, 1019.6,   96.6, -999.0
07-05-2022, 00:44:22,    262,    0.0,   10.2,   0.00,   0.00, 1019.7,   96.7, -999.0
07-05-2022, 00:44:32,    262,    0.0,   10.2,   0.00,   0.00, 1019.6,   96.6, -999.0
07-05-2022, 00:44:42,    263,    0.0,   10.2,   0.00,   0.00, 1019.7,   96.7, -999.0
07-05-2022, 00:44:52,    263,    0.0,   10.2,   0.00,   0.00, 1019.7,   96.7, -999.0
07-05-2022, 00:45:02,    263,    0.0,   10.2,   0.00,   0.00, 1019.6,   96.7, -999.0
07-05-2022, 00:45:12,    263,    0.0,   10.2,   0.00,   0.00, 1019.7,   96.8, -999.0
07-05-2022, 00:45:22,    262,    0.0,   10.1,   0.00,   0.00, 1019.7,   96.8, -999.0
07-05-2022, 00:45:32,    263,    0.0,   10.1,   0.00,   0.00, 1019.7,   96.9, -999.0
07-05-2022, 00:45:41,    263,    0.0,   10.1,   0.00,   0.00, 1019.6,   96.8, -999.0
07-05-2022, 00:45:52,    262,    0.0,   10.1,   0.00,   0.00, 1019.6,   96.9, -999.0
07-05-2022, 00:46:02,    262,    0.0,   10.2,   0.00,   0.00, 1019.6,   96.9, -999.0
07-05-2022, 00:46:11,    262,    0.0,   10.1,   0.00,   0.00, 1019.6,   97.0, -999.0
07-05-2022, 00:46:21,    266,    0.2,   10.2,   0.00,   0.00, 1019.6,   97.0, -999.0
07-05-2022, 00:46:34,    264,    0.3,   10.2,   0.00,   0.00, 1019.7,   97.1, -999.0
07-05-2022, 00:46:41,    264,    1.3,   10.2,   0.00,   0.00, 1019.7,   97.3, -999.0